Regional Weather Roundup
Issued by NWS Kansas City/Pleasant Hill, MO

Home | Current Version | Previous Version | Text Only | Print | Product List | Glossary On
Versions: 1 2 3 4 5 6 7 8 9 10 11 12 13 14 15 16 17 18 19 20 21 22 23 24 25 26 27 28 29 30 31 32 33 34 35 36 37 38 39 40 41 42 43 44 45 46 47 48
000
ASUS43 KEAX 240210
RWREAX

WEATHER ROUNDUP FOR EASTERN KANSAS AND NORTHWEST MISSOURI
NATIONAL WEATHER SERVICE KANSAS CITY/PLEASANT HILL MO
900 PM CDT MON MAY 23 2016

KSZ040-057-103>105-MOZ028-029-037-043-240300-
...KANSAS CITY METROPOLITAN AREA...

CITY           SKY/WX    TMP DP  RH WIND       PRES   REMARKS
K.C. INTL      PTCLDY    63  61  93 S8        29.86R
K.C. DOWNTOWN  CLEAR     67  61  81 SW3       29.85R
LEES SUMMIT    PTCLDY    69  59  70 S7        29.86R
OLATHE - IXD   PTCLDY    63  62  97 S3        29.87R
OLATHE - OJC   PTCLDY    63  61  93 CALM      29.86R
LAWRENCE         N/A    N/A N/A N/A MISG      29.85R

$$

MOZ001>008-011>017-020>025-030>033-038>040-044>046-053-054-240300-
...NORTHERN AND CENTRAL MISSOURI...

CITY           SKY/WX    TMP DP  RH WIND       PRES   REMARKS
ST. JOSEPH     PTCLDY    67  62  84 S8        29.84R
MOSBY          CLEAR     68  61  77 SE3       29.85R
WARRENSBURG    PTCLDY    68  61  77 CALM      29.87R
WHITEMAN AFB   MOCLDY    71  63  74 CALM      29.86R
CLINTON        MOCLDY    72  63  73 S12       29.87R
SEDALIA        CLOUDY    73  62  68 W8        29.87R
WARSAW         NOT AVBL
CHILLICOTHE      N/A     70  63  78 CALM      29.87R
KIRKSVILLE     CLOUDY    71  57  61 SW5       29.89R

$$

MOZ041-047>049-056>058-063>065-088>090-097-240300-
...EASTERN AND SOUTHERN MISSOURI...

CITY           SKY/WX    TMP DP  RH WIND       PRES   REMARKS
ST. LOUIS INTL CLOUDY    76  53  44 S6        29.94R
SPIRIT OF STL  MOCLDY    72  58  61 S5        29.92R
COLUMBIA       CLOUDY    71  57  61 SE10      29.86F
JEFFERSON CITY CLOUDY    73  57  57 SE10      29.86F
ROLLA          CLOUDY    68  55  63 SE7       29.90F
OSAGE BEACH      N/A    N/A N/A N/A MISG        N/A
SPRINGFIELD    PTCLDY    64  61  90 SE7       29.89F
BRANSON        MOCLDY    63  63 100 CALM      29.93S FOG
JOPLIN         PTCLDY    64  62  93 S9        29.89R
WEST PLAINS    CLOUDY    68  59  73 CALM      29.94S

$$

IAZ060-094-KSZ022-034>040-054-083-096-NEZ052-066-093-240300-
...KANSAS...SOUTHEAST NEBRASKA AND IOWA...

CITY           SKY/WX    TMP DP  RH WIND       PRES   REMARKS
TOPEKA         CLOUDY    66  60  81 SE6       29.84R
MANHATTAN      CLOUDY    70  61  73 E6        29.80R
EMPORIA        CLOUDY    65  62  90 SE9       29.82F
CHANUTE        PTCLDY    66  62  87 SE8       29.85F
WICHITA        CLOUDY    70  63  78 S14       29.79S
OMAHA          CLOUDY    70  63  78 S10       29.76F
LINCOLN        CLOUDY    69  61  75 S8        29.78R
FALLS CITY     CLOUDY    68  62  81 S14       29.82R
LAMONI         CLOUDY    68  62  81 SE8       29.84R
DES MOINES     CLOUDY    71  59  65 S3        29.83S

$$




USA.gov is the U.S. government's official web portal to all federal, state and local government web resources and services.